| time (UTC) | temp F | wind direction | speed MPH | gust MPH | rain 1hr in | rain 24hr in | rain mn in | humidity % | barometer mb |
| 20260906153044 | 69 | 9 | 8.0 | 14.0 | 0.00 | 0.00 | 0.00 | 75 | 1018.6 |
| 20260906152533 | 70 | 26 | 7.0 | 13.0 | 0.00 | 0.00 | 0.00 | 74 | 1018.6 |
| 20260906152047 | 70 | 30 | 9.0 | 14.0 | 0.00 | 0.00 | 0.00 | 75 | 1018.6 |
| 20260906151554 | 70 | 355 | 7.0 | 15.0 | 0.00 | 0.00 | 0.00 | 75 | 1018.6 |
| 20260906151027 | 70 | 329 | 9.0 | 15.0 | 0.00 | 0.00 | 0.00 | 74 | 1018.5 |
| 20260906150553 | 70 | 292 | 9.0 | 12.0 | 0.00 | 0.00 | 0.00 | 75 | 1018.6 |
| 20260906150028 | 70 | 336 | 8.0 | 12.0 | 0.00 | 0.00 | 0.00 | 77 | 1018.6 |
| 20260906145555 | 70 | 5 | 6.0 | 10.0 | 0.00 | 0.00 | 0.00 | 77 | 1018.6 |
| 20260906145101 | 70 | 29 | 7.0 | 13.0 | 0.00 | 0.00 | 0.00 | 75 | 1018.7 |
| 20260906144525 | 70 | 42 | 8.0 | 13.0 | 0.00 | 0.00 | 0.00 | 76 | 1018.6 |
| 20260906144023 | 69 | 30 | 4.0 | 10.0 | 0.00 | 0.00 | 0.00 | 79 | 1018.5 |
| 20260906143524 | 69 | 23 | 6.0 | 10.0 | 0.00 | 0.00 | 0.00 | 80 | 1018.6 |
| 20260906143022 | 68 | 34 | 6.0 | 10.0 | 0.00 | 0.00 | 0.00 | 80 | 1018.6 |
| 20260906142529 | 68 | 35 | 5.0 | 9.0 | 0.00 | 0.00 | 0.00 | 82 | 1018.5 |
| 20260906142053 | 68 | 20 | 6.0 | 10.0 | 0.00 | 0.00 | 0.00 | 82 | 1018.5 |
| 20260906141600 | 68 | 19 | 6.0 | 10.0 | 0.00 | 0.00 | 0.00 | 82 | 1018.5 |
| 20260906141037 | 68 | 13 | 5.0 | 8.0 | 0.00 | 0.00 | 0.00 | 81 | 1018.2 |
| 20260906140526 | 68 | 54 | 5.0 | 12.0 | 0.00 | 0.00 | 0.00 | 82 | 1018.2 |
| 20260906140030 | 67 | 13 | 7.0 | 12.0 | 0.00 | 0.00 | 0.00 | 82 | 1018.1 |
| 20260906135558 | 67 | 18 | 5.0 | 9.0 | 0.00 | 0.00 | 0.00 | 82 | 1018.2 |
| 20260906135031 | 67 | 48 | 5.0 | 10.0 | 0.00 | 0.00 | 0.00 | 83 | 1018.1 |
| 20260906134539 | 67 | 20 | 5.0 | 10.0 | 0.00 | 0.00 | 0.00 | 84 | 1018.2 |
| 20260906133526 | 67 | 337 | 4.0 | 10.0 | 0.00 | 0.00 | 0.00 | 85 | 1018.1 |
| 20260906133042 | 67 | 324 | 6.0 | 10.0 | 0.00 | 0.00 | 0.00 | 86 | 1018.1 |
| 20260906132540 | 67 | 344 | 3.0 | 9.0 | 0.00 | 0.00 | 0.00 | 89 | 1018.0 |
| 20260906132026 | 66 | 25 | 4.0 | 9.0 | 0.00 | 0.00 | 0.00 | 89 | 1018.0 |
| 20260906131523 | 66 | 14 | 3.0 | 8.0 | 0.00 | 0.00 | 0.00 | 89 | 1017.9 |
| 20260906131054 | 66 | 60 | 4.0 | 7.0 | 0.00 | 0.00 | 0.00 | 89 | 1017.9 |
| 20260906130522 | 66 | 31 | 4.0 | 7.0 | 0.00 | 0.00 | 0.00 | 90 | 1018.0 |
| 20260906130056 | 66 | 22 | 5.0 | 10.0 | 0.00 | 0.00 | 0.00 | 91 | 1018.1 |
| 20260906125529 | 66 | 23 | 7.0 | 10.0 | 0.00 | 0.00 | 0.00 | 91 | 1018.0 |
| 20260906125022 | 65 | 30 | 6.0 | 11.0 | 0.00 | 0.00 | 0.00 | 92 | 1017.9 |
| 20260906124531 | 65 | 27 | 6.0 | 11.0 | 0.00 | 0.00 | 0.00 | 93 | 1017.9 |
| 20260906124033 | 65 | 40 | 5.0 | 7.0 | 0.00 | 0.00 | 0.00 | 94 | 1017.8 |
| 20260906123557 | 65 | 22 | 4.0 | 9.0 | 0.00 | 0.00 | 0.00 | 95 | 1017.8 |
| 20260906123039 | 64 | 11 | 4.0 | 9.0 | 0.00 | 0.00 | 0.00 | 95 | 1017.8 |
| 20260906122604 | 64 | 30 | 3.0 | 7.0 | 0.00 | 0.00 | 0.00 | 95 | 1017.7 |
| 20260906122037 | 64 | 26 | 3.0 | 6.0 | 0.00 | 0.00 | 0.00 | 95 | 1017.6 |
| 20260906121540 | 64 | 360 | 0.0 | 3.0 | 0.00 | 0.00 | 0.00 | 95 | 1017.6 |
| 20260906121028 | 63 | 5 | 0.0 | 0.0 | 0.00 | 0.00 | 0.00 | 95 | 1017.7 |
| 20260906120541 | 63 | 302 | 0.0 | 0.0 | 0.00 | 0.00 | 0.00 | 95 | 1017.6 |
| 20260906115526 | 62 | 298 | 0.0 | 0.0 | 0.00 | 0.00 | 0.00 | 94 | 1017.5 |
| 20260906115036 | 62 | 298 | 0.0 | 0.0 | 0.00 | 0.00 | 0.00 | 94 | 1017.3 |
| 20260906114603 | 61 | 298 | 0.0 | 0.0 | 0.00 | 0.00 | 0.00 | 94 | 1017.2 |
| 20260906114040 | 61 | 298 | 0.0 | 0.0 | 0.00 | 0.00 | 0.00 | 94 | 1017.2 |
| 20260906113550 | 61 | 298 | 0.0 | 0.0 | 0.00 | 0.00 | 0.00 | 93 | 1017.2 |
| 20260906113056 | 61 | 298 | 0.0 | 0.0 | 0.00 | 0.00 | 0.00 | 93 | 1017.2 |
| 20260906112535 | 61 | 298 | 0.0 | 0.0 | 0.00 | 0.00 | 0.00 | 93 | 1017.2 |
| 20260906112024 | 61 | 298 | 0.0 | 0.0 | 0.00 | 0.00 | 0.00 | 93 | 1017.1 |
| 20260906111535 | 61 | 298 | 0.0 | 0.0 | 0.00 | 0.00 | 0.00 | 93 | 1016.9 |
| 20260906111050 | 61 | 298 | 0.0 | 0.0 | 0.00 | 0.00 | 0.00 | 93 | 1016.9 |
| 20260906110522 | 61 | 298 | 0.0 | 0.0 | 0.00 | 0.00 | 0.00 | 93 | 1016.8 |
| 20260906110021 | 61 | 298 | 0.0 | 0.0 | 0.00 | 0.00 | 0.00 | 93 | 1016.8 |
| 20260906105548 | 61 | 298 | 0.0 | 0.0 | 0.00 | 0.00 | 0.00 | 93 | 1016.8 |
| 20260906105032 | 61 | 298 | 0.0 | 0.0 | 0.00 | 0.00 | 0.00 | 93 | 1016.8 |
| 20260906104549 | 61 | 298 | 0.0 | 0.0 | 0.00 | 0.00 | 0.00 | 93 | 1016.8 |
| 20260906104036 | 61 | 298 | 0.0 | 0.0 | 0.00 | 0.00 | 0.00 | 93 | 1016.7 |
| 20260906103522 | 61 | 298 | 0.0 | 0.0 | 0.00 | 0.00 | 0.00 | 93 | 1016.7 |
| 20260906103026 | 61 | 298 | 0.0 | 0.0 | 0.00 | 0.00 | 0.00 | 93 | 1016.6 |
| 20260906102533 | 61 | 298 | 0.0 | 0.0 | 0.00 | 0.00 | 0.00 | 93 | 1016.5 |
| 20260906102030 | 61 | 298 | 0.0 | 0.0 | 0.00 | 0.00 | 0.00 | 93 | 1016.5 |
| 20260906101539 | 61 | 298 | 0.0 | 0.0 | 0.00 | 0.00 | 0.00 | 93 | 1016.4 |
| 20260906101022 | 61 | 298 | 0.0 | 0.0 | 0.00 | 0.00 | 0.00 | 93 | 1016.4 |
| 20260906100523 | 61 | 298 | 0.0 | 0.0 | 0.00 | 0.00 | 0.00 | 93 | 1016.3 |
| 20260906100028 | 61 | 298 | 0.0 | 0.0 | 0.00 | 0.00 | 0.00 | 93 | 1016.3 |
| 20260906095527 | 61 | 298 | 0.0 | 0.0 | 0.00 | 0.00 | 0.00 | 93 | 1016.2 |
| 20260906095039 | 61 | 298 | 0.0 | 0.0 | 0.00 | 0.00 | 0.00 | 93 | 1016.1 |
| 20260906094544 | 61 | 298 | 0.0 | 0.0 | 0.00 | 0.00 | 0.00 | 93 | 1016.1 |
| 20260906094031 | 61 | 298 | 0.0 | 0.0 | 0.00 | 0.00 | 0.00 | 93 | 1016.1 |
| 20260906093542 | 61 | 298 | 0.0 | 0.0 | 0.00 | 0.00 | 0.00 | 93 | 1016.0 |
| 20260906093043 | 61 | 298 | 0.0 | 0.0 | 0.00 | 0.00 | 0.00 | 92 | 1016.0 |
| 20260906092523 | 61 | 298 | 0.0 | 0.0 | 0.00 | 0.00 | 0.00 | 93 | 1016.0 |
| 20260906092037 | 61 | 298 | 0.0 | 0.0 | 0.00 | 0.00 | 0.00 | 93 | 1015.9 |
| 20260906091524 | 61 | 298 | 0.0 | 0.0 | 0.00 | 0.00 | 0.00 | 92 | 1015.8 |
| 20260906091035 | 61 | 298 | 0.0 | 0.0 | 0.00 | 0.00 | 0.00 | 92 | 1015.7 |
| 20260906090530 | 61 | 298 | 0.0 | 0.0 | 0.00 | 0.00 | 0.00 | 92 | 1015.6 |
| 20260906090039 | 61 | 298 | 0.0 | 0.0 | 0.00 | 0.00 | 0.00 | 92 | 1015.5 |
| 20260906085525 | 62 | 298 | 0.0 | 0.0 | 0.00 | 0.00 | 0.00 | 92 | 1015.4 |
| 20260906085105 | 62 | 298 | 0.0 | 0.0 | 0.00 | 0.00 | 0.00 | 92 | 1015.3 |
| 20260906084532 | 62 | 298 | 0.0 | 0.0 | 0.00 | 0.00 | 0.00 | 92 | 1015.3 |
| 20260906084025 | 62 | 298 | 0.0 | 0.0 | 0.00 | 0.00 | 0.00 | 92 | 1015.3 |
| 20260906083544 | 62 | 298 | 0.0 | 0.0 | 0.00 | 0.00 | 0.00 | 92 | 1015.3 |
| 20260906083027 | 62 | 298 | 0.0 | 0.0 | 0.00 | 0.00 | 0.00 | 92 | 1015.3 |
| 20260906082543 | 62 | 298 | 0.0 | 0.0 | 0.00 | 0.00 | 0.00 | 92 | 1015.2 |
| 20260906082032 | 63 | 298 | 0.0 | 0.0 | 0.00 | 0.00 | 0.00 | 92 | 1015.2 |
| 20260906081536 | 63 | 298 | 0.0 | 0.0 | 0.00 | 0.00 | 0.00 | 92 | 1015.2 |
| 20260906081053 | 63 | 298 | 0.0 | 0.0 | 0.00 | 0.00 | 0.00 | 92 | 1015.2 |
| 20260906080525 | 63 | 298 | 0.0 | 0.0 | 0.00 | 0.00 | 0.00 | 92 | 1015.1 |
| 20260906080055 | 63 | 298 | 0.0 | 0.0 | 0.00 | 0.00 | 0.00 | 92 | 1015.2 |
| 20260906075526 | 63 | 298 | 0.0 | 0.0 | 0.00 | 0.00 | 0.00 | 92 | 1015.2 |
| 20260906075044 | 63 | 298 | 0.0 | 0.0 | 0.00 | 0.00 | 0.00 | 92 | 1015.2 |
| 20260906074542 | 63 | 298 | 0.0 | 0.0 | 0.00 | 0.00 | 0.00 | 92 | 1015.1 |
| 20260906074048 | 63 | 298 | 0.0 | 0.0 | 0.00 | 0.00 | 0.00 | 92 | 1015.1 |
| 20260906073535 | 63 | 298 | 0.0 | 0.0 | 0.00 | 0.00 | 0.00 | 92 | 1015.1 |
| 20260906073039 | 63 | 298 | 0.0 | 0.0 | 0.00 | 0.00 | 0.00 | 92 | 1015.1 |
| 20260906072547 | 63 | 298 | 0.0 | 0.0 | 0.00 | 0.00 | 0.00 | 92 | 1015.0 |
| 20260906072034 | 63 | 298 | 0.0 | 0.0 | 0.00 | 0.00 | 0.00 | 92 | 1015.0 |
| 20260906071551 | 63 | 298 | 0.0 | 0.0 | 0.00 | 0.00 | 0.00 | 92 | 1015.1 |
| 20260906071024 | 63 | 298 | 0.0 | 0.0 | 0.00 | 0.00 | 0.00 | 92 | 1015.1 |
| 20260906070542 | 63 | 298 | 0.0 | 0.0 | 0.00 | 0.00 | 0.00 | 92 | 1015.1 |
| 20260906070029 | 64 | 298 | 0.0 | 0.0 | 0.00 | 0.00 | 0.00 | 92 | 1015.1 |
| 20260906065540 | 64 | 298 | 0.0 | 0.0 | 0.00 | 0.00 | 0.00 | 92 | 1015.1 |
| 20260906065033 | 64 | 298 | 0.0 | 0.0 | 0.00 | 0.00 | 0.00 | 92 | 1015.1 |
| 20260906064533 | 64 | 298 | 0.0 | 0.0 | 0.00 | 0.00 | 0.00 | 92 | 1015.1 |
| 20260906064025 | 64 | 298 | 0.0 | 0.0 | 0.00 | 0.00 | 0.00 | 92 | 1015.2 |
| 20260906063536 | 64 | 298 | 0.0 | 0.0 | 0.00 | 0.00 | 0.00 | 92 | 1015.2 |
| 20260906063059 | 64 | 298 | 0.0 | 0.0 | 0.00 | 0.00 | 0.00 | 92 | 1015.2 |
| 20260906062525 | 64 | 298 | 0.0 | 0.0 | 0.00 | 0.00 | 0.00 | 92 | 1015.2 |
| 20260906062046 | 64 | 298 | 0.0 | 0.0 | 0.00 | 0.00 | 0.00 | 92 | 1015.1 |
| 20260906061600 | 64 | 298 | 0.0 | 0.0 | 0.00 | 0.00 | 0.00 | 92 | 1015.2 |
| 20260906061024 | 64 | 298 | 0.0 | 0.0 | 0.00 | 0.00 | 0.00 | 92 | 1015.2 |
| 20260906060537 | 64 | 298 | 0.0 | 0.0 | 0.00 | 0.00 | 0.00 | 92 | 1015.2 |
| 20260906060030 | 64 | 298 | 0.0 | 0.0 | 0.00 | 0.00 | 0.00 | 92 | 1015.1 |
| 20260906055527 | 64 | 298 | 0.0 | 0.0 | 0.00 | 0.00 | 0.00 | 92 | 1015.1 |
| 20260906055056 | 64 | 298 | 0.0 | 0.0 | 0.00 | 0.00 | 0.00 | 92 | 1015.1 |
| 20260906054544 | 64 | 298 | 0.0 | 0.0 | 0.00 | 0.00 | 0.00 | 92 | 1015.2 |
| 20260906054029 | 64 | 298 | 0.0 | 0.0 | 0.00 | 0.00 | 0.00 | 92 | 1015.2 |
| 20260906053527 | 64 | 298 | 0.0 | 0.0 | 0.00 | 0.00 | 0.00 | 92 | 1015.2 |
| 20260906053040 | 64 | 298 | 0.0 | 0.0 | 0.00 | 0.00 | 0.00 | 92 | 1015.3 |
| 20260906052523 | 64 | 298 | 0.0 | 0.0 | 0.00 | 0.00 | 0.00 | 92 | 1015.3 |
| 20260906052041 | 64 | 298 | 0.0 | 0.0 | 0.00 | 0.00 | 0.00 | 92 | 1015.3 |
| 20260906051536 | 64 | 298 | 0.0 | 0.0 | 0.00 | 0.00 | 0.00 | 92 | 1015.3 |
| 20260906051036 | 64 | 298 | 0.0 | 0.0 | 0.00 | 0.00 | 0.00 | 92 | 1015.4 |
| 20260906050522 | 64 | 298 | 0.0 | 0.0 | 0.00 | 0.00 | 0.00 | 92 | 1015.4 |
| 20260906050034 | 64 | 298 | 0.0 | 0.0 | 0.00 | 0.00 | 0.00 | 91 | 1015.3 |
| 20260906045606 | 64 | 298 | 0.0 | 0.0 | 0.00 | 0.00 | 0.00 | 91 | 1015.2 |
| 20260906045031 | 64 | 298 | 0.0 | 0.0 | 0.00 | 0.00 | 0.00 | 91 | 1015.2 |
| 20260906044526 | 64 | 298 | 0.0 | 0.0 | 0.00 | 0.00 | 0.00 | 91 | 1015.2 |
| 20260906044037 | 64 | 298 | 0.0 | 0.0 | 0.00 | 0.00 | 0.00 | 91 | 1015.1 |
| 20260906043548 | 64 | 298 | 0.0 | 0.0 | 0.00 | 0.00 | 0.00 | 91 | 1015.0 |
| 20260906043047 | 64 | 298 | 0.0 | 0.0 | 0.00 | 0.00 | 0.00 | 90 | 1015.0 |
| 20260906042533 | 64 | 298 | 0.0 | 0.0 | 0.00 | 0.00 | 0.00 | 90 | 1015.0 |
| 20260906042032 | 64 | 298 | 0.0 | 0.0 | 0.00 | 0.00 | 0.00 | 90 | 1015.1 |
| 20260906041550 | 64 | 298 | 0.0 | 0.0 | 0.00 | 0.00 | 0.00 | 90 | 1015.1 |
| 20260906041034 | 64 | 298 | 0.0 | 0.0 | 0.00 | 0.00 | 0.00 | 90 | 1015.1 |
| 20260906040549 | 64 | 298 | 0.0 | 0.0 | 0.00 | 0.00 | 0.00 | 90 | 1015.1 |
| 20260906040024 | 65 | 298 | 0.0 | 0.0 | 0.00 | 0.00 | 0.00 | 90 | 1015.1 |
| 20260906035552 | 65 | 298 | 0.0 | 0.0 | 0.00 | 0.00 | 0.00 | 90 | 1015.0 |
| 20260906035024 | 65 | 298 | 0.0 | 0.0 | 0.00 | 0.00 | 0.00 | 90 | 1015.0 |
| 20260906034551 | 65 | 298 | 0.0 | 0.0 | 0.00 | 0.00 | 0.00 | 90 | 1015.0 |
| 20260906034029 | 65 | 298 | 0.0 | 0.0 | 0.00 | 0.00 | 0.00 | 90 | 1015.0 |
| 20260906033533 | 65 | 298 | 0.0 | 0.0 | 0.00 | 0.00 | 0.00 | 90 | 1014.9 |
| 20260906033108 | 65 | 298 | 0.0 | 0.0 | 0.00 | 0.00 | 0.00 | 90 | 1014.9 |
| 20260906032554 | 65 | 298 | 0.0 | 0.0 | 0.00 | 0.00 | 0.00 | 90 | 1014.9 |
| 20260906032038 | 65 | 298 | 0.0 | 0.0 | 0.00 | 0.00 | 0.00 | 89 | 1015.0 |
| 20260906031533 | 65 | 298 | 0.0 | 0.0 | 0.00 | 0.00 | 0.00 | 89 | 1015.0 |
| 20260906031041 | 65 | 298 | 0.0 | 0.0 | 0.00 | 0.00 | 0.00 | 89 | 1015.0 |
| 20260906030527 | 65 | 298 | 0.0 | 0.0 | 0.00 | 0.00 | 0.00 | 89 | 1014.8 |
| 20260906030039 | 65 | 298 | 0.0 | 0.0 | 0.00 | 0.00 | 0.00 | 89 | 1014.8 |
| 20260906025546 | 65 | 298 | 0.0 | 0.0 | 0.00 | 0.00 | 0.00 | 89 | 1014.8 |
| 20260906025027 | 65 | 298 | 0.0 | 0.0 | 0.00 | 0.00 | 0.00 | 88 | 1014.8 |
| 20260906024540 | 65 | 298 | 0.0 | 0.0 | 0.00 | 0.00 | 0.00 | 88 | 1014.7 |
| 20260906024044 | 65 | 298 | 0.0 | 0.0 | 0.00 | 0.00 | 0.00 | 88 | 1014.7 |
| 20260906023552 | 65 | 298 | 0.0 | 0.0 | 0.00 | 0.00 | 0.00 | 88 | 1014.7 |
| 20260906023037 | 65 | 298 | 0.0 | 0.0 | 0.00 | 0.00 | 0.00 | 88 | 1014.8 |
| 20260906022543 | 66 | 296 | 0.0 | 0.0 | 0.00 | 0.00 | 0.00 | 88 | 1014.8 |
| 20260906022057 | 66 | 296 | 0.0 | 0.0 | 0.00 | 0.00 | 0.00 | 87 | 1014.7 |
| 20260906021530 | 66 | 296 | 0.0 | 0.0 | 0.00 | 0.00 | 0.00 | 87 | 1014.7 |
| 20260906021025 | 66 | 296 | 0.0 | 0.0 | 0.00 | 0.00 | 0.00 | 86 | 1014.6 |
| 20260906020533 | 66 | 296 | 0.0 | 0.0 | 0.00 | 0.00 | 0.00 | 86 | 1014.6 |
| 20260906020029 | 66 | 296 | 0.0 | 0.0 | 0.00 | 0.00 | 0.00 | 86 | 1014.7 |
| 20260906015559 | 66 | 296 | 0.0 | 0.0 | 0.00 | 0.00 | 0.00 | 86 | 1014.7 |
| 20260906015051 | 66 | 296 | 0.0 | 0.0 | 0.00 | 0.00 | 0.00 | 86 | 1014.7 |
| 20260906014539 | 66 | 296 | 0.0 | 0.0 | 0.00 | 0.00 | 0.00 | 86 | 1014.6 |
| 20260906014044 | 67 | 296 | 0.0 | 0.0 | 0.00 | 0.00 | 0.00 | 86 | 1014.5 |
| 20260906013540 | 67 | 296 | 0.0 | 0.0 | 0.00 | 0.00 | 0.00 | 86 | 1014.5 |
| 20260906013023 | 67 | 296 | 0.0 | 0.0 | 0.00 | 0.00 | 0.00 | 86 | 1014.5 |
| 20260906012545 | 67 | 296 | 0.0 | 0.0 | 0.00 | 0.00 | 0.00 | 85 | 1014.5 |
| 20260906012059 | 67 | 296 | 0.0 | 0.0 | 0.00 | 0.00 | 0.00 | 84 | 1014.5 |
| 20260906011530 | 67 | 296 | 0.0 | 0.0 | 0.00 | 0.00 | 0.00 | 84 | 1014.5 |
| 20260906011029 | 67 | 296 | 0.0 | 0.0 | 0.00 | 0.00 | 0.00 | 84 | 1014.4 |
| 20260906010527 | 68 | 296 | 0.0 | 0.0 | 0.00 | 0.00 | 0.00 | 84 | 1014.5 |
| 20260906010050 | 68 | 296 | 0.0 | 0.0 | 0.00 | 0.00 | 0.00 | 84 | 1014.5 |
| 20260906005527 | 68 | 296 | 0.0 | 0.0 | 0.00 | 0.00 | 0.00 | 83 | 1014.5 |
| 20260906005034 | 68 | 296 | 0.0 | 0.0 | 0.00 | 0.00 | 0.00 | 82 | 1014.4 |
| 20260906004532 | 68 | 296 | 0.0 | 0.0 | 0.00 | 0.00 | 0.00 | 83 | 1014.4 |
| 20260906004026 | 68 | 296 | 0.0 | 0.0 | 0.00 | 0.00 | 0.00 | 83 | 1014.3 |
| 20260906003550 | 69 | 296 | 0.0 | 0.0 | 0.00 | 0.00 | 0.00 | 82 | 1014.2 |
| 20260906003024 | 69 | 296 | 0.0 | 0.0 | 0.00 | 0.00 | 0.00 | 81 | 1014.2 |
| 20260906002552 | 69 | 296 | 0.0 | 0.0 | 0.00 | 0.00 | 0.00 | 82 | 1014.2 |
| 20260906002027 | 69 | 296 | 0.0 | 0.0 | 0.00 | 0.00 | 0.00 | 82 | 1014.3 |
| 20260906001554 | 69 | 296 | 0.0 | 0.0 | 0.00 | 0.00 | 0.00 | 81 | 1014.3 |
| 20260906001029 | 69 | 296 | 0.0 | 0.0 | 0.00 | 0.00 | 0.00 | 81 | 1014.4 |
| 20260906000600 | 70 | 296 | 0.0 | 0.0 | 0.00 | 0.00 | 0.00 | 80 | 1014.4 |
| 20260906000026 | 70 | 296 | 0.0 | 0.0 | 0.00 | 0.00 | 0.00 | 80 | 1014.4 |
| 20260905235539 | 70 | 296 | 0.0 | 0.0 | 0.00 | 0.00 | 0.00 | 79 | 1014.4 |
| 20260905235053 | 70 | 296 | 0.0 | 0.0 | 0.00 | 0.00 | 0.00 | 78 | 1014.3 |
| 20260905234541 | 70 | 296 | 0.0 | 0.0 | 0.00 | 0.00 | 0.00 | 78 | 1014.3 |
| 20260905234023 | 71 | 296 | 0.0 | 0.0 | 0.00 | 0.00 | 0.00 | 78 | 1014.3 |
| 20260905233525 | 71 | 296 | 0.0 | 0.0 | 0.00 | 0.00 | 0.00 | 78 | 1014.3 |
| 20260905233038 | 71 | 296 | 0.0 | 0.0 | 0.00 | 0.00 | 0.00 | 78 | 1014.3 |
| 20260905232542 | 71 | 296 | 0.0 | 0.0 | 0.00 | 0.00 | 0.00 | 78 | 1014.3 |
| 20260905232032 | 71 | 296 | 0.0 | 0.0 | 0.00 | 0.00 | 0.00 | 78 | 1014.4 |
| 20260905231559 | 71 | 300 | 0.0 | 3.0 | 0.00 | 0.00 | 0.00 | 78 | 1014.4 |
| 20260905231044 | 71 | 315 | 1.0 | 4.0 | 0.00 | 0.00 | 0.00 | 78 | 1014.3 |
| 20260905230529 | 71 | 331 | 1.0 | 4.0 | 0.00 | 0.00 | 0.00 | 78 | 1014.3 |
| 20260905230024 | 71 | 322 | 2.0 | 6.0 | 0.00 | 0.00 | 0.00 | 78 | 1014.3 |
| 20260905225548 | 71 | 324 | 2.0 | 6.0 | 0.00 | 0.00 | 0.00 | 78 | 1014.4 |
| 20260905225031 | 71 | 298 | 2.0 | 7.0 | 0.00 | 0.00 | 0.00 | 78 | 1014.3 |
| 20260905224531 | 71 | 355 | 4.0 | 7.0 | 0.00 | 0.00 | 0.00 | 78 | 1014.5 |
| 20260905224043 | 71 | 342 | 4.0 | 7.0 | 0.00 | 0.00 | 0.00 | 77 | 1014.4 |
| 20260905223544 | 71 | 325 | 1.0 | 8.0 | 0.00 | 0.00 | 0.00 | 77 | 1014.4 |
| 20260905223030 | 71 | 333 | 3.0 | 8.0 | 0.00 | 0.00 | 0.00 | 76 | 1014.3 |
| 20260905222524 | 71 | 292 | 2.0 | 6.0 | 0.00 | 0.00 | 0.00 | 77 | 1014.1 |
| 20260905222041 | 71 | 360 | 3.0 | 8.0 | 0.00 | 0.00 | 0.00 | 76 | 1014.2 |
| 20260905221541 | 71 | 341 | 5.0 | 12.0 | 0.00 | 0.00 | 0.00 | 76 | 1014.1 |
| 20260905221030 | 71 | 336 | 6.0 | 12.0 | 0.00 | 0.00 | 0.00 | 75 | 1014.2 |
| 20260905220542 | 71 | 315 | 7.0 | 11.0 | 0.00 | 0.00 | 0.00 | 75 | 1014.2 |
| 20260905220038 | 72 | 344 | 6.0 | 10.0 | 0.00 | 0.00 | 0.00 | 76 | 1014.0 |
| 20260905215558 | 72 | 340 | 7.0 | 10.0 | 0.00 | 0.00 | 0.00 | 77 | 1014.0 |
| 20260905215035 | 72 | 355 | 5.0 | 7.0 | 0.00 | 0.00 | 0.00 | 77 | 1014.0 |
| 20260905214542 | 72 | 323 | 3.0 | 8.0 | 0.00 | 0.00 | 0.00 | 77 | 1013.9 |
| 20260905214033 | 72 | 329 | 3.0 | 8.0 | 0.00 | 0.00 | 0.00 | 77 | 1013.9 |
| 20260905213536 | 72 | 335 | 2.0 | 7.0 | 0.00 | 0.00 | 0.00 | 77 | 1013.8 |
| 20260905213031 | 72 | 288 | 4.0 | 9.0 | 0.00 | 0.00 | 0.00 | 77 | 1013.9 |
| 20260905212547 | 72 | 336 | 6.0 | 9.0 | 0.00 | 0.00 | 0.00 | 77 | 1013.8 |
| 20260905212037 | 72 | 344 | 5.0 | 9.0 | 0.00 | 0.00 | 0.00 | 77 | 1013.8 |
| 20260905211526 | 72 | 5 | 5.0 | 9.0 | 0.00 | 0.00 | 0.00 | 76 | 1013.8 |
| 20260905211023 | 72 | 339 | 5.0 | 9.0 | 0.00 | 0.00 | 0.00 | 75 | 1013.7 |
| 20260905210523 | 72 | 342 | 7.0 | 9.0 | 0.00 | 0.00 | 0.00 | 75 | 1013.7 |
| 20260905210028 | 72 | 13 | 5.0 | 8.0 | 0.00 | 0.00 | 0.00 | 75 | 1013.6 |
| 20260905205540 | 72 | 323 | 4.0 | 8.0 | 0.00 | 0.00 | 0.00 | 75 | 1013.6 |
| 20260905205028 | 72 | 351 | 5.0 | 8.0 | 0.00 | 0.00 | 0.00 | 75 | 1013.7 |
| 20260905204558 | 72 | 339 | 4.0 | 7.0 | 0.00 | 0.00 | 0.00 | 76 | 1013.6 |
| 20260905204039 | 72 | 325 | 4.0 | 9.0 | 0.00 | 0.00 | 0.00 | 74 | 1013.6 |
| 20260905203539 | 72 | 5 | 3.0 | 9.0 | 0.00 | 0.00 | 0.00 | 75 | 1013.7 |
| 20260905203027 | 72 | 322 | 6.0 | 9.0 | 0.00 | 0.00 | 0.00 | 74 | 1013.8 |
| 20260905202545 | 72 | 331 | 5.0 | 10.0 | 0.00 | 0.00 | 0.00 | 74 | 1013.7 |
| 20260905202030 | 73 | 30 | 6.0 | 12.0 | 0.00 | 0.00 | 0.00 | 74 | 1013.7 |
| 20260905201604 | 73 | 332 | 5.0 | 13.0 | 0.00 | 0.00 | 0.00 | 73 | 1013.7 |
| 20260905201047 | 73 | 11 | 6.0 | 11.0 | 0.00 | 0.00 | 0.00 | 73 | 1013.6 |
| 20260905200536 | 73 | 348 | 7.0 | 11.0 | 0.00 | 0.00 | 0.00 | 72 | 1013.7 |
| 20260905200033 | 73 | 360 | 6.0 | 11.0 | 0.00 | 0.00 | 0.00 | 72 | 1013.6 |
| 20260905195525 | 73 | 37 | 6.0 | 11.0 | 0.00 | 0.00 | 0.00 | 71 | 1013.7 |
| 20260905195045 | 73 | 341 | 6.0 | 10.0 | 0.00 | 0.00 | 0.00 | 73 | 1013.7 |
| 20260905194534 | 73 | 333 | 4.0 | 10.0 | 0.00 | 0.00 | 0.00 | 71 | 1013.6 |
| 20260905194040 | 73 | 331 | 7.0 | 10.0 | 0.00 | 0.00 | 0.00 | 71 | 1013.7 |
| 20260905193532 | 73 | 319 | 4.0 | 9.0 | 0.00 | 0.00 | 0.00 | 71 | 1013.7 |
| 20260905193059 | 73 | 315 | 4.0 | 12.0 | 0.00 | 0.00 | 0.00 | 72 | 1013.7 |
| 20260905192525 | 73 | 5 | 6.0 | 12.0 | 0.00 | 0.00 | 0.00 | 71 | 1013.7 |
| 20260905192025 | 73 | 323 | 7.0 | 12.0 | 0.00 | 0.00 | 0.00 | 73 | 1013.8 |
| 20260905191551 | 73 | 336 | 7.0 | 13.0 | 0.00 | 0.00 | 0.00 | 73 | 1013.9 |
| 20260905191034 | 73 | 360 | 7.0 | 13.0 | 0.00 | 0.00 | 0.00 | 72 | 1013.8 |
| 20260905190557 | 73 | 325 | 5.0 | 9.0 | 0.00 | 0.00 | 0.00 | 72 | 1013.8 |
| 20260905190031 | 73 | 271 | 4.0 | 12.0 | 0.00 | 0.00 | 0.00 | 71 | 1013.7 |
| 20260905185538 | 73 | 290 | 7.0 | 12.0 | 0.00 | 0.00 | 0.00 | 71 | 1013.7 |
| 20260905185112 | 73 | 317 | 3.0 | 8.0 | 0.00 | 0.00 | 0.00 | 70 | 1013.7 |
| 20260905184526 | 73 | 339 | 4.0 | 8.0 | 0.00 | 0.00 | 0.00 | 70 | 1013.7 |
| 20260905184024 | 73 | 288 | 5.0 | 9.0 | 0.00 | 0.00 | 0.00 | 70 | 1013.7 |
| 20260905183532 | 73 | 25 | 4.0 | 12.0 | 0.00 | 0.00 | 0.00 | 71 | 1013.6 |
| 20260905183028 | 73 | 340 | 8.0 | 12.0 | 0.00 | 0.00 | 0.00 | 70 | 1013.6 |
| 20260905182526 | 73 | 278 | 4.0 | 12.0 | 0.00 | 0.00 | 0.00 | 70 | 1013.7 |
| 20260905182034 | 73 | 355 | 6.0 | 10.0 | 0.00 | 0.00 | 0.00 | 72 | 1013.7 |
| 20260905181614 | 73 | 355 | 6.0 | 11.0 | 0.00 | 0.00 | 0.00 | 70 | 1013.7 |
| 20260905181033 | 73 | 344 | 5.0 | 9.0 | 0.00 | 0.00 | 0.00 | 71 | 1013.6 |
| 20260905180546 | 73 | 273 | 4.0 | 7.0 | 0.00 | 0.00 | 0.00 | 69 | 1013.5 |
| 20260905180023 | 73 | 347 | 5.0 | 9.0 | 0.00 | 0.00 | 0.00 | 71 | 1013.6 |
| 20260905175541 | 73 | 346 | 6.0 | 9.0 | 0.00 | 0.00 | 0.00 | 73 | 1013.6 |
| 20260905175023 | 72 | 337 | 4.0 | 9.0 | 0.00 | 0.00 | 0.00 | 72 | 1013.6 |
| 20260905174551 | 72 | 270 | 4.0 | 9.0 | 0.00 | 0.00 | 0.00 | 73 | 1013.6 |
| 20260905174103 | 72 | 348 | 7.0 | 10.0 | 0.00 | 0.00 | 0.00 | 70 | 1013.7 |
| 20260905173529 | 73 | 34 | 6.0 | 10.0 | 0.00 | 0.00 | 0.00 | 72 | 1013.7 |
| 20260905173022 | 73 | 38 | 6.0 | 10.0 | 0.00 | 0.00 | 0.00 | 72 | 1013.7 |
| 20260905172537 | 72 | 271 | 2.0 | 8.0 | 0.00 | 0.00 | 0.00 | 73 | 1013.6 |
| 20260905172049 | 72 | 355 | 4.0 | 8.0 | 0.00 | 0.00 | 0.00 | 73 | 1013.8 |
| 20260905171530 | 72 | 287 | 2.0 | 8.0 | 0.00 | 0.00 | 0.00 | 75 | 1013.6 |
| 20260905171026 | 72 | 275 | 3.0 | 9.0 | 0.00 | 0.00 | 0.00 | 73 | 1013.6 |
| 20260905170537 | 73 | 302 | 4.0 | 10.0 | 0.00 | 0.00 | 0.00 | 72 | 1013.6 |
| 20260905170029 | 73 | 349 | 4.0 | 8.0 | 0.00 | 0.00 | 0.00 | 73 | 1013.7 |
| 20260905165533 | 73 | 5 | 4.0 | 9.0 | 0.00 | 0.00 | 0.00 | 73 | 1013.7 |
| 20260905165101 | 73 | 347 | 5.0 | 9.0 | 0.00 | 0.00 | 0.00 | 72 | 1013.7 |
| 20260905164542 | 72 | 317 | 3.0 | 10.0 | 0.00 | 0.00 | 0.00 | 74 | 1013.7 |
| 20260905164044 | 73 | 335 | 5.0 | 10.0 | 0.00 | 0.00 | 0.00 | 73 | 1013.7 |
| 20260905163552 | 73 | 271 | 3.0 | 10.0 | 0.00 | 0.00 | 0.00 | 74 | 1013.8 |
| 20260905163028 | 73 | 281 | 2.0 | 11.0 | 0.00 | 0.00 | 0.00 | 76 | 1013.8 |
| 20260905162519 | 73 | 355 | 6.0 | 13.0 | 0.00 | 0.00 | 0.00 | 72 | 1013.8 |
| 20260905162028 | 73 | 332 | 2.0 | 13.0 | 0.00 | 0.00 | 0.00 | 72 | 1013.8 |
| 20260905161526 | 73 | 293 | 4.0 | 7.0 | 0.00 | 0.00 | 0.00 | 73 | 1013.8 |
| 20260905161029 | 73 | 273 | 3.0 | 6.0 | 0.00 | 0.00 | 0.00 | 72 | 1013.8 |
| 20260905160548 | 73 | 286 | 3.0 | 12.0 | 0.00 | 0.00 | 0.00 | 73 | 1013.9 |
| 20260905160026 | 73 | 314 | 4.0 | 12.0 | 0.00 | 0.00 | 0.00 | 74 | 1013.9 |
| 20260905155551 | 72 | 331 | 4.0 | 10.0 | 0.00 | 0.00 | 0.00 | 76 | 1013.9 |
| 20260905155029 | 72 | 331 | 5.0 | 10.0 | 0.00 | 0.00 | 0.00 | 72 | 1014.0 |
| 20260905154531 | 72 | 307 | 5.0 | 8.0 | 0.00 | 0.00 | 0.00 | 74 | 1014.0 |
| 20260905154037 | 72 | 338 | 5.0 | 8.0 | 0.00 | 0.00 | 0.00 | 75 | 1014.0 |
| 20260905153547 | 72 | 280 | 3.0 | 7.0 | 0.00 | 0.00 | 0.00 | 74 | 1014.0 |